Weather Service Report


242 
ASUS45 KPSR 021910
RWRAZ 

ARIZONA REGIONAL HOURLY WEATHER ROUNDUP
NATIONAL WEATHER SERVICE PHOENIX AZ
1200 PM MST MON MAR 02 2015

NOTE: FAIR INDICATES FEW OR NO CLOUDS BELOW 12,000 FEET WITH NO
SIGNIFICANT WEATHER AND/OR OBSTRUCTIONS TO VISIBILITY.

AZZ001>003-036-022000-
NORTHWEST ARIZONA

CITY           SKY/WX    TMP DP  RH WIND       PRES   REMARKS
BULLHEAD CITY  PTSUNNY   55  46  71 S13G18    29.89S
KINGMAN        LGT RAIN  45  41  86 SW17G24   29.87R
$$

AZZ004>008-015-016-018-022000-
NORTH CENTRAL ARIZONA

CITY           SKY/WX    TMP DP  RH WIND       PRES   REMARKS
GRAND CANYON   SNOW      32  31  96 W8        29.84F VSB 1/2 WCI  25
PRESCOTT       LGT SNOW  34  31  88 SW7       29.90F VSB 1   WCI  28
FLAGSTAFF      HVY SNOW  31  29  92 SW9       29.84F VSB 1/4 WCI  23
PAYSON         DRIZZLE   45  43  93 S18G39    29.90S
$$

AZZ009>014-017-022000-
NORTHEAST ARIZONA

CITY           SKY/WX    TMP DP  RH WIND       PRES   REMARKS
WINSLOW        PTSUNNY   58  39  49 S26G46    29.82F
SAINT JOHNS    PTSUNNY   58  31  35 S25G40    29.88F
WINDOW ROCK    PTSUNNY   53  32  44 S31G44    29.88F
SHOW LOW       LGT RAIN  39  37  93 S21G33    29.94S WCI  29
$$

AZZ023-022000-
GREATER PHOENIX AREA

CITY           SKY/WX    TMP DP  RH WIND       PRES   REMARKS
PHOENIX        RAIN      53  49  86 W14       29.93S FOG
BUCKEYE        CLOUDY    50  50 100 CALM      29.96S
GLENDALE       LGT RAIN  54  52  94 W6        29.96S
LUKE AFB       LGT RAIN  53  47  82 NW8       29.93F
DEER VALLEY    LGT RAIN  50  47  89 W10G18    29.93S FOG
SCOTTSDALE     RAIN      52  48  87 VRB3      29.96R FOG
MESA-FALCON    CLOUDY    50  50 100 W12       29.94R
MESA-GATEWAY   RAIN      52  46  82 W16       29.97R
CHANDLER       LGT RAIN  54  50  87 W12       29.96R
$$

AZZ027-028-022000-
SOUTHWEST MARICOPA COUNTY AND PINAL COUNTY

CITY           SKY/WX    TMP DP  RH WIND       PRES   REMARKS
CASA GRANDE    CLOUDY    50  46  87 W17G24    29.95S
GILA BEND      RAIN      52  50  92 SE7       29.96F
$$

AZZ503-504-507>509-022000-
SOUTHEAST ARIZONA

CITY           SKY/WX    TMP DP  RH WIND       PRES   REMARKS
TUCSON         CLOUDY    66  44  45 SW13G25   29.94F
DAVIS-MONTHAN  PTSUNNY   65  43  44 SW14      29.92F
RYAN FIELD       N/A     68  46  45 S28G36    29.93F
NOGALES        LGT RAIN  56  48  74 S21G28    30.00R
SIERRA VISTA   CLOUDY    61  43  51 S26G35    29.99F
DOUGLAS        CLOUDY    61  44  53 S30G37    30.02F
SAFFORD        CLOUDY    68  39  34 S21G31    29.93F
$$

AZZ020-021-025-026-031-022000-
SOUTHWEST ARIZONA

CITY           SKY/WX    TMP DP  RH WIND       PRES   REMARKS
YUMA           PTSUNNY   60  50  69 CALM      29.93F
$$

CAZ031-033-041-043-047-048-061-022000-
SOUTHERN CALIFORNIA

CITY           SKY/WX    TMP DP  RH WIND       PRES   REMARKS
DOWNTOWN L.A.  PTSUNNY   57  46  66 VRB3      29.93S
L.A. AIRPORT   PTSUNNY   55  48  77 VRB3      29.93S
SAN DIEGO      PTSUNNY   57  44  62 SW10      29.96F
BURBANK        MOSUNNY   55  44  66 E5        29.91F
ONTARIO        PTSUNNY   54  42  64 SW5       29.91F
RIVERSIDE      PTSUNNY   56  41  57 E3        29.91F
PALM SPRINGS   PTSUNNY   57  44  62 VRB5      29.92F
EL CENTRO NAS  PTSUNNY   62  46  55 S9        29.91F
IMPERIAL       MOSUNNY   62  45  53 SW9       29.91F
BLYTHE         SUNNY     59  49  69 SW12      29.91F
NEEDLES        CLOUDY    58  44  60 SW9       29.88R
$$

NVZ020-UTZ003-022000-
SOUTHERN NEVADA-UTAH

CITY           SKY/WX    TMP DP  RH WIND       PRES   REMARKS
LAS VEGAS      PTSUNNY   53  36  52 S20G28    29.76F
SALT LAKE CITY CLOUDY    40  35  83 SE8       29.70F WCI  34
$$

NMZ009-TXZ055-022000-
NEW MEXICO-WEST TEXAS

CITY           SKY/WX    TMP DP  RH WIND       PRES   REMARKS
ALBUQUERQUE    CLOUDY    50  33  52 N8        29.98F
EL PASO        LGT RAIN  50  40  68 S7        30.05F
$$


........................KEY........................
SKY/WX - SKY CONDITION/WEATHER
TMP    - TEMPERATURE IN FAHRENHEIT
DP     - DEW POINT IN FAHRENHEIT
RH     - RELATIVE HUMIDITY IN PERCENT
WIND   - DIRECTION AND SPEED IN MILES PER HOUR (MPH)
VRB    - VARIABLE WIND DIRECTION
PRES   - MEAN SEA LEVEL PRESSURE IN INCHES OF MERCURY
         F - FALLING PRESSURE   R - RISING PRESSURE
         S - STEADY PRESSURE
VSB    - VISIBILITY IN MILES
HX     - HEAT INDEX IN FAHRENHEIT
WCI    - WIND CHILL INDEX IN FAHRENHEIT
TC     - TEMPERATURE IN CELSIUS WHICH IS ALSO KNOWN AS
         TEMPERATURE IN CENTIGRADE
AFB    - AIR FORCE BASE
         LUKE AFB IS LUKE AIR FORCE BASE
         DAVIS-MONTHAN IS DAVIS-MONTHAN AIR FORCE BASE
NAS    - NAVAL AIR STATION
         EL CENTRO NAS IS EL CENTRO NAVAL AIR STATION
N/A    - NOT AVAILABLE

Return to Home page


Western Regional Climate Center, wrcc@dri.edu